Location: Gloden
(48.4833°N, 15.3167°E)
Time: 11:21:37
(UTC+00:00)

Cosmos 1833 Rocket - Pass Details

Date: 15 December 2019
Orbit: 831 x 841 km, 71.0° (Epoch: 25 January)

Event Time Altitude Azimuth Distance (km) Brightness Sun altitude
Exits shadow 05:35:23 - 334° (NNW) 2,892 5.0 -10.7°
Reaches altitude 10° 05:36:31 10° 335° (NNW) 2,465 4.7 -10.5°
Maximum altitude 05:42:10 70° 60° (ENE) 894 3.0 -9.6°
Drops below altitude 10° 05:47:47 10° 144° (SE) 2,454 6.2 -8.8°
Sets 05:50:14 0° 147° (SSE) 3,385 7.0 -8.4°
